Canby, MN

6:33 PM CDT on July 24, 2016 (GMT -0500)
Canby

Weather History for KCNB - October, 2012

Change the Weather History Date:

Sunday, October 7, 2012

  Actual Average (KMML) Record (KMML)
Temperature  
Mean Temperature 43 °F -  
Max Temperature 57 °F 64 °F 85 °F (1961)
Min Temperature 29 °F 38 °F 20 °F (1976)
Degree Days  
Heating Degree Days 22    
Moisture  
Dew Point 20 °F    
Average Humidity 45    
Maximum Humidity 75    
Minimum Humidity 21    
Precipitation  
Precipitation 0.00 in - - ()
Sea Level Pressure  
Sea Level Pressure 30.03 in    
Wind  
Wind Speed 9 mph (SW)    
Max Wind Speed 18 mph    
Max Gust Speed 26 mph    
Visibility 10 miles    
Events      
Averages and records for this station are not official NWS values.
T = Trace of Precipitation, MM = Missing Value Source: NWS Daily Summary

Daily Weather History Graph

Daily Weather History Graph

Search for Another Location

Airport or City:

Trip Planner

Search our weather history database for the weather conditions in past years. The results will help you decide how hot, cold, wet, or windy it might be!

Date:

Astronomy

Oct. 07, 2012 Rise Set
Actual Time 7:31 AM CDT 6:53 PM CDT
Civil Twilight 7:01 AM CDT 7:22 PM CDT
Nautical Twilight 6:27 AM CDT 7:56 PM CDT
Astronomical Twilight 5:53 AM CDT 8:30 PM CDT
Moon 11:56 PM CDT (10/7) 2:19 PM CDT (10/7)
Length of Visible Light 12h 21m
Length of Day
11h 22m
Waning Gibbous, 56% of the Moon is Illuminated
Oct 7
Waning Gibbous
Oct 8
Last Quarter
Oct 15
New
Oct 21
First Quarter
Oct 29
Full

Hourly Weather History & Observations

Time (CDT) Temp. Windchill Dew Point Humidity Pressure Visibility Wind Dir Wind Speed Gust Speed Precip Events Conditions
12:14 AM 29.8 °F 23.9 °F 22.3 °F 73% 30.25 in 10.0 mi SW 5.8 mph - N/A   Clear
12:34 AM 30.2 °F 25.4 °F 22.6 °F 73% 30.25 in 10.0 mi SW 4.6 mph - N/A   Clear
12:54 AM 30.6 °F 24.7 °F 23.0 °F 74% 30.24 in 10.0 mi SW 5.8 mph - N/A   Clear
1:15 AM 30.6 °F 24.7 °F 23.4 °F 75% 30.24 in 10.0 mi SW 5.8 mph - N/A   Clear
1:34 AM 30.7 °F 27.3 °F 23.5 °F 75% 30.23 in 10.0 mi SW 3.5 mph - N/A   Clear
1:54 AM 30.0 °F 25.2 °F 23.0 °F 75% 30.23 in 10.0 mi SSW 4.6 mph - N/A   Clear
2:14 AM 30.9 °F 23.5 °F 23.0 °F 72% 30.22 in 10.0 mi SW 8.1 mph - N/A   Clear
2:34 AM 31.3 °F 22.7 °F 23.0 °F 71% 30.21 in 10.0 mi SW 10.4 mph - N/A   Clear
2:55 AM 31.3 °F 23.3 °F 23.0 °F 71% 30.21 in 10.0 mi SW 9.2 mph - N/A   Clear
3:15 AM 31.3 °F 22.1 °F 22.8 °F 71% 30.20 in 10.0 mi SW 11.5 mph - N/A   Clear
3:34 AM 31.6 °F 22.1 °F 22.8 °F 70% 30.20 in 10.0 mi SW 12.7 mph 17.3 mph N/A   Clear
3:54 AM 31.5 °F 21.8 °F 22.8 °F 70% 30.19 in 10.0 mi SW 12.7 mph - N/A   Clear
4:14 AM 31.1 °F 22.4 °F 22.6 °F 71% 30.18 in 10.0 mi SW 10.4 mph - N/A   Clear
4:34 AM 30.7 °F 21.4 °F 22.5 °F 71% 30.18 in 10.0 mi SW 11.5 mph - N/A   Clear
4:54 AM 31.1 °F 23.7 °F 22.3 °F 70% 30.18 in 10.0 mi SW 8.1 mph - N/A   Clear
5:14 AM 31.1 °F 23.1 °F 22.1 °F 69% 30.17 in 10.0 mi SW 9.2 mph - N/A   Clear
5:35 AM 32.0 °F 24.2 °F 21.4 °F 65% 30.17 in 10.0 mi SSW 9.2 mph - N/A   Clear
5:54 AM 31.5 °F 23.5 °F 20.3 °F 63% 30.16 in 10.0 mi SW 9.2 mph - N/A   Clear
6:15 AM 31.5 °F 22.9 °F 20.1 °F 63% 30.15 in 10.0 mi SW 10.4 mph - N/A   Clear
6:34 AM 31.3 °F 23.3 °F 20.1 °F 63% 30.15 in 10.0 mi SSW 9.2 mph - N/A   Clear
6:54 AM 31.6 °F 23.1 °F 20.1 °F 62% 30.14 in 10.0 mi SW 10.4 mph - N/A   Clear
7:15 AM 31.8 °F 23.9 °F 20.3 °F 62% 30.13 in 10.0 mi SW 9.2 mph - N/A   Clear
7:34 AM 31.5 °F 23.5 °F 21.0 °F 65% 30.13 in 10.0 mi SW 9.2 mph 16.1 mph N/A   Clear
7:54 AM 31.1 °F 23.1 °F 20.8 °F 66% 30.12 in 10.0 mi SW 9.2 mph - N/A   Clear
8:15 AM 31.6 °F 24.4 °F 21.2 °F 65% 30.12 in 10.0 mi SW 8.1 mph 17.3 mph N/A   Clear
8:35 AM 32.0 °F 22.1 °F 21.6 °F 65% 30.11 in 10.0 mi SW 13.8 mph 18.4 mph N/A   Clear
8:54 AM 34.5 °F 26.2 °F 22.1 °F 61% 30.11 in 10.0 mi SW 11.5 mph 19.6 mph N/A   Clear
9:14 AM 36.3 °F 27.5 °F 22.6 °F 58% 30.10 in 10.0 mi SW 13.8 mph 20.7 mph N/A   Clear
9:34 AM 39.0 °F 30.6 °F 23.0 °F 53% 30.10 in 10.0 mi SW 15.0 mph 21.9 mph N/A   Clear
9:55 AM 40.8 °F 32.3 °F 22.8 °F 49% 30.09 in 10.0 mi SW 17.3 mph 26.5 mph N/A   Clear
10:14 AM 43.0 °F 34.8 °F 22.3 °F 44% 30.09 in 10.0 mi SW 18.4 mph 25.3 mph N/A   Clear
10:35 AM 44.6 °F 37.2 °F 21.2 °F 39% 30.09 in 10.0 mi SW 17.3 mph 24.2 mph N/A   Clear
10:54 AM 46.9 °F - 20.8 °F 36% 30.08 in 10.0 mi SW 15.0 mph 18.4 mph N/A   Clear
11:14 AM 48.4 °F - 19.9 °F 32% 30.07 in 10.0 mi SW 13.8 mph 17.3 mph N/A   Clear
11:35 AM 49.3 °F - 19.2 °F 30% 30.06 in 10.0 mi SW 10.4 mph - N/A   Clear
11:54 AM 50.2 °F - 21.4 °F 32% 30.05 in 10.0 mi SW 15.0 mph - N/A   Clear
12:14 PM 51.8 °F - 22.5 °F 32% 30.05 in 10.0 mi SW 17.3 mph 21.9 mph N/A   Clear
12:34 PM 52.3 °F - 22.1 °F 31% 30.03 in 10.0 mi SSW 15.0 mph 20.7 mph N/A   Clear
12:54 PM 52.7 °F - 21.4 °F 29% 30.03 in 10.0 mi West 15.0 mph 20.7 mph N/A   Clear
1:15 PM 53.2 °F - 20.8 °F 28% 30.01 in 10.0 mi SW 15.0 mph 23.0 mph N/A   Clear
1:34 PM 54.5 °F - 19.0 °F 25% 30.00 in 10.0 mi WSW 13.8 mph 18.4 mph N/A   Clear
1:54 PM 55.4 °F - 18.5 °F 24% 29.99 in 10.0 mi SW 13.8 mph 20.7 mph N/A   Clear
2:15 PM 55.2 °F - 18.1 °F 23% 29.98 in 10.0 mi WSW 15.0 mph 18.4 mph N/A   Clear
2:34 PM 55.6 °F - 18.1 °F 23% 29.97 in 10.0 mi WSW 13.8 mph 20.7 mph N/A   Clear
2:54 PM 55.8 °F - 18.1 °F 23% 29.96 in 10.0 mi WSW 11.5 mph 21.9 mph N/A   Clear
3:15 PM 55.9 °F - 17.8 °F 22% 29.95 in 10.0 mi West 12.7 mph 24.2 mph N/A   Clear
3:34 PM 56.5 °F - 16.3 °F 21% 29.94 in 10.0 mi WSW 16.1 mph 21.9 mph N/A   Clear
3:54 PM 55.9 °F - 17.2 °F 22% 29.93 in 10.0 mi WSW 10.4 mph - N/A   Clear
4:14 PM 57.0 °F - 18.0 °F 22% 29.92 in 10.0 mi WSW 12.7 mph 18.4 mph N/A   Clear
4:35 PM 56.7 °F - 18.9 °F 23% 29.91 in 10.0 mi SW 12.7 mph - N/A   Clear
4:54 PM 57.2 °F - 18.7 °F 22% 29.91 in 10.0 mi WSW 10.4 mph - N/A   Clear
5:14 PM 56.7 °F - 18.3 °F 22% 29.90 in 10.0 mi SW 11.5 mph - N/A   Clear
5:34 PM 56.7 °F - 16.7 °F 21% 29.90 in 10.0 mi West 9.2 mph - N/A   Clear
5:54 PM 56.3 °F - 16.7 °F 21% 29.90 in 10.0 mi West 10.4 mph - N/A   Scattered Clouds
6:14 PM 55.2 °F - 16.9 °F 22% 29.89 in 10.0 mi WSW 8.1 mph - N/A   Scattered Clouds
6:34 PM 53.4 °F - 18.3 °F 25% 29.89 in 10.0 mi SW 6.9 mph - N/A   Clear
6:55 PM 51.1 °F - 18.7 °F 28% 29.88 in 10.0 mi SW 3.5 mph - N/A   Clear
7:14 PM 50.7 °F - 18.5 °F 28% 29.88 in 10.0 mi SSW 3.5 mph - N/A   Clear
7:34 PM 49.1 °F - 19.2 °F 31% 29.88 in 10.0 mi SSW 3.5 mph - N/A   Clear
7:54 PM 46.6 °F - 19.6 °F 34% 29.88 in 10.0 mi South 3.5 mph - N/A   Clear
8:14 PM 45.1 °F 42.8 °F 19.2 °F 36% 29.88 in 10.0 mi South 4.6 mph - N/A   Clear
8:34 PM 40.3 °F 37.1 °F 19.2 °F 43% 29.87 in 10.0 mi South 4.6 mph - N/A   Clear
8:54 PM 43.7 °F 40.3 °F 18.3 °F 36% 29.87 in 10.0 mi South 5.8 mph - N/A   Clear
9:14 PM 43.2 °F 40.5 °F 18.9 °F 38% 29.87 in 10.0 mi South 4.6 mph - N/A   Clear
9:34 PM 42.6 °F 39.9 °F 19.0 °F 39% 29.86 in 10.0 mi South 4.6 mph - N/A   Unknown
9:55 PM 41.0 °F 38.0 °F 19.0 °F 41% 29.86 in 10.0 mi SSW 4.6 mph - N/A   Clear
10:14 PM 45.1 °F 40.3 °F 18.3 °F 34% 29.85 in 10.0 mi SW 9.2 mph - N/A   Clear
10:34 PM 45.0 °F 41.2 °F 18.5 °F 35% 29.85 in 10.0 mi SW 6.9 mph - N/A   Clear
10:55 PM 43.7 °F 39.7 °F 18.5 °F 36% 29.85 in 10.0 mi SSW 6.9 mph - N/A   Clear
11:14 PM 44.1 °F 39.5 °F 18.5 °F 36% 29.84 in 10.0 mi SW 8.1 mph - N/A   Clear
11:34 PM 43.9 °F 38.8 °F 18.3 °F 36% 29.83 in 10.0 mi SW 9.2 mph - N/A   Clear
11:55 PM 43.7 °F 38.6 °F 18.3 °F 36% 29.83 in 10.0 mi SW 9.2 mph - N/A   Clear